KE6JJJ-1 Weather Reports


Display with metric or nautical units.
time (UTC)temp
F
wind
direction
speed
MPH
gust
MPH
rain 1hr
in
rain 24hr
in
rain mn
in
humidity
%
barometer
mb
20260503203503 64 180 5.0 11.0 0.00 0.00 0.00 66 1013.0
20260503200504 63 225 7.0 12.0 0.00 0.00 0.00 68 1013.2
20260503193503 63 225 6.0 12.0 0.00 0.00 0.00 68 1013.3
20260503190503 64 225 6.0 10.0 0.00 0.00 0.00 66 1013.2
20260503183503 63 248 7.0 14.0 0.00 0.00 0.00 69 1013.2
20260503180503 62 270 5.0 9.0 0.00 0.00 0.00 70 1013.1
20260503173503 62 248 5.0 8.0 0.00 0.00 0.00 70 1013.2
20260503170503 61 202 4.0 8.0 0.00 0.00 0.00 74 1013.1
20260503150503 56 225 2.0 3.0 0.00 0.00 0.00 83 1012.5
20260503130503 55 225 2.0 3.0 0.00 0.00 0.00 83 1010.9
20260503110503 55 225 3.0 6.0 0.00 0.00 0.00 83 1011.2
20260503090503 55 248 1.0 2.0 0.00 0.00 0.00 83 1011.4
20260503080712 56 270 4.0 7.0 0.00 0.00 0.00 82 1012.0
20260503080504 56 270 4.0 7.0 0.00 0.00 0.00 82 1012.0
20260503070503 56 270 3.0 4.0 0.00 0.00 0.00 82 1012.0
20260503053503 56 248 8.0 11.0 0.00 0.00 0.00 82 1012.5
20260503050503 56 225 2.0 5.0 0.00 0.00 0.00 82 1012.4
20260503043503 56 248 7.0 10.0 0.00 0.00 0.00 81 1012.0
20260503040503 56 248 6.0 10.0 0.00 0.00 0.00 81 1012.1
20260503033543 56 292 2.0 4.0 0.00 0.00 0.00 81 1011.9
20260503033503 56 292 2.0 4.0 0.00 0.00 0.00 81 1011.9
20260503030503 56 292 9.0 13.0 0.00 0.00 0.00 81 1011.4
20260503023824 57 292 7.0 10.0 0.00 0.00 0.00 80 1011.3
20260503023503 57 292 7.0 10.0 0.00 0.00 0.00 80 1011.3
20260503020537 57 248 6.0 13.0 0.00 0.00 0.00 79 1011.3
20260503020503 57 248 6.0 13.0 0.00 0.00 0.00 79 1011.3
20260503013503 58 248 3.0 7.0 0.00 0.00 0.00 77 1011.6
20260503010504 59 270 6.0 8.0 0.00 0.00 0.00 75 1011.7
20260503003812 59 225 7.0 11.0 0.00 0.00 0.00 74 1011.8
20260503003503 59 225 7.0 11.0 0.00 0.00 0.00 74 1011.8
20260503000503 60 270 9.0 15.0 0.00 0.00 0.00 73 1011.9
20260502233541 60 248 10.0 14.0 0.00 0.00 0.00 71 1012.3
20260502233503 60 248 10.0 14.0 0.00 0.00 0.00 71 1012.3
20260502230504 62 248 2.0 7.0 0.00 0.00 0.00 71 1012.5
20260502223503 61 270 6.0 9.0 0.00 0.00 0.00 71 1013.0
20260502220503 60 202 7.0 11.0 0.00 0.00 0.00 72 1013.4
20260502213503 60 248 6.0 8.0 0.00 0.00 0.00 71 1013.4
20260502210503 62 225 7.0 11.0 0.00 0.00 0.00 69 1013.6